Location: Loures
(38.8330°N, 9.1670°W)
Time: 07:59:24
(UTC+01:00)

ISS - Visible Passes

Search period start: 24 October 2020 00:00
Search period end: 02 November 2020 23:00
Orbit: 417 x 420 km, 51.6° (Epoch: 24 October)

Date Brightness Start Highest point End Pass type
(mag) Time Alt. Az. Time Alt. Az. Time Alt. Az.
24 Oct -3.8 06:37:38 28° SW 06:39:17 86° SE 06:42:39 10° NE visible
25 Oct -2.2 04:52:29 35° E 04:52:29 35° E 04:54:49 10° ENE visible
25 Oct -2.3 06:25:46 10° W 06:28:31 23° NNW 06:31:17 10° NNE visible
26 Oct -2.9 05:40:08 32° NW 05:40:38 33° NNW 05:43:44 10° NE visible
27 Oct -1.6 04:54:40 23° NE 04:54:40 23° NE 04:56:07 10° NE visible
27 Oct -1.5 06:28:24 10° NW 06:30:12 14° NNW 06:31:59 10° NNE visible
28 Oct -1.9 05:42:04 17° NNW 05:42:12 17° NNW 05:44:32 10° NNE visible
29 Oct -1.0 04:56:25 13° NNE 04:56:25 13° NNE 04:57:02 10° NNE visible
30 Oct -1.3 05:43:39 11° NNW 05:43:57 11° NNW 05:45:06 10° N visible
02 Nov -1.2 06:34:20 10° N 06:35:45 12° NNE 06:37:08 10° NE visible
